DW5479 Weather Reports


time (UTC)temp
F
wind
direction
speed
knots
gust
knots
rain 1hr
in
rain 24hr
in
rain mn
in
humidity
%
barometer
mb
20260831214550 100 148 2.6 7.0 0.00 0.00 0.00 35 1010.8
20260831213006 99 159 2.6 9.6 0.00 0.00 0.00 35 1011.1
20260831211526 99 165 3.5 7.8 0.00 0.00 0.00 38 1011.2
20260831210040 99 141 1.7 8.7 0.00 0.00 0.00 39 1011.5
20260831204502 99 153 3.5 9.6 0.00 0.00 0.00 39 1011.7
20260831203033 98 148 2.6 9.6 0.00 0.00 0.00 40 1012.0
20260831201555 98 146 4.3 10.4 0.00 0.00 0.00 39 1012.3
20260831200107 98 125 2.6 7.0 0.00 0.00 0.00 41 1012.6
20260831194526 96 149 3.5 13.0 0.00 0.00 0.00 44 1012.9
20260831193034 96 134 4.3 12.2 0.00 0.00 0.00 43 1013.1
20260831191556 96 155 2.6 7.8 0.00 0.00 0.00 45 1013.3
20260831190007 95 166 1.7 10.4 0.00 0.00 0.00 45 1013.5
20260831184537 94 136 1.7 5.2 0.00 0.00 0.00 48 1013.8
20260831183101 95 165 4.3 8.7 0.00 0.00 0.00 47 1013.9
20260831181521 95 143 1.7 7.0 0.00 0.00 0.00 47 1014.0
20260831180044 94 127 2.6 8.7 0.00 0.00 0.00 48 1014.1
20260831174558 93 136 2.6 8.7 0.00 0.00 0.00 48 1014.3
20260831173030 92 134 4.3 9.6 0.00 0.00 0.00 53 1014.5
20260831171546 92 134 3.5 7.0 0.00 0.00 0.00 53 1014.6
20260831170022 92 139 2.6 6.1 0.00 0.00 0.00 54 1014.7
20260831164532 91 159 3.5 8.7 0.00 0.00 0.00 56 1014.7
20260831163052 90 153 1.7 7.8 0.00 0.00 0.00 60 1014.8
20260831161505 89 150 3.5 8.7 0.00 0.00 0.00 62 1014.7
20260831160021 88 162 2.6 7.8 0.00 0.00 0.00 67 1014.9
20260831154554 88 146 4.3 6.1 0.00 0.00 0.00 66 1014.9
20260831153010 87 159 3.5 8.7 0.00 0.00 0.00 68 1014.9
20260831151526 86 151 2.6 7.8 0.00 0.00 0.00 69 1014.8
20260831150041 85 136 0.9 6.1 0.00 0.00 0.00 74 1014.7
20260831144642 84 171 1.7 6.1 0.00 0.00 0.00 77 1014.6
20260831143011 83 155 2.6 5.2 0.00 0.00 0.00 81 1014.6
20260831141531 81 142 1.7 4.3 0.00 0.00 0.00 84 1014.7
20260831140045 80 136 0.9 3.5 0.00 0.00 0.00 86 1014.6
20260831134605 78 138 0.9 2.6 0.00 0.00 0.00 88 1014.4
20260831133015 76 136 0.9 3.5 0.00 0.00 0.00 89 1014.4
20260831131601 75 137 0.9 2.6 0.00 0.00 0.00 89 1014.3
20260831130015 75 139 0.9 2.6 0.00 0.00 0.00 89 1014.2
20260831124537 74 137 0.9 3.5 0.00 0.00 0.00 89 1014.1
20260831123055 74 146 0.0 2.6 0.00 0.00 0.00 89 1014.1
20260831121508 74 153 0.0 1.7 0.00 0.00 0.00 90 1013.9
20260831120027 73 155 0.0 0.9 0.00 0.00 0.00 89 1013.8
20260831114550 73 146 0.0 0.0 0.00 0.00 0.00 89 1013.7
20260831113021 73 173 0.0 0.0 0.00 0.00 0.00 89 1013.5
20260831111539 73 161 0.0 0.0 0.00 0.00 0.00 89 1013.6
20260831110057 73 158 0.0 0.0 0.00 0.00 0.00 89 1013.5
20260831104531 73 167 0.0 0.0 0.00 0.00 0.00 89 1013.4
20260831103050 73 167 0.0 0.0 0.00 0.00 0.00 89 1013.5
20260831101503 73 174 0.0 0.0 0.00 0.00 0.00 89 1013.6
20260831100019 74 154 0.0 0.0 0.00 0.00 0.00 88 1013.6
20260831094544 75 166 0.0 0.0 0.00 0.00 0.00 88 1013.5
20260831093102 75 152 0.0 0.0 0.00 0.00 0.00 88 1013.7
20260831091517 75 143 0.0 0.0 0.00 0.00 0.00 88 1013.7
20260831090036 75 148 0.0 0.0 0.00 0.00 0.00 87 1013.8
20260831084631 76 160 0.0 0.0 0.00 0.00 0.00 87 1013.8
20260831083016 76 181 0.0 0.0 0.00 0.00 0.00 86 1013.9
20260831081546 77 146 0.0 0.0 0.00 0.00 0.00 86 1013.8
20260831080008 77 154 0.0 2.6 0.00 0.00 0.00 86 1013.7
20260831074528 77 160 0.9 3.5 0.00 0.00 0.00 86 1013.7
20260831073049 78 148 0.9 2.6 0.00 0.00 0.00 86 1013.6
20260831071611 78 151 0.9 2.6 0.00 0.00 0.00 85 1013.6
20260831070020 78 160 0.9 4.3 0.00 0.00 0.00 85 1013.7
20260831064532 79 155 1.7 7.0 0.00 0.00 0.00 84 1013.7
20260831063049 79 148 3.5 6.1 0.00 0.00 0.00 84 1013.7
20260831061504 79 160 2.6 6.1 0.00 0.00 0.00 83 1013.8
20260831060015 79 193 1.7 6.1 0.00 0.00 0.00 82 1013.7
20260831054537 80 145 4.3 8.7 0.00 0.00 0.00 82 1013.6
20260831053114 80 177 3.5 8.7 0.00 0.00 0.00 81 1013.6
20260831051510 80 160 3.5 10.4 0.00 0.00 0.00 79 1013.5
20260831050030 81 153 5.2 10.4 0.00 0.00 0.00 78 1013.4
20260831044548 81 158 5.2 13.0 0.00 0.00 0.00 76 1013.4
20260831043103 82 150 7.0 11.3 0.00 0.00 0.00 73 1013.3
20260831041529 83 140 7.0 11.3 0.00 0.00 0.00 70 1013.2
20260831040050 83 130 5.2 9.6 0.00 0.00 0.00 68 1013.1
20260831034532 84 139 7.0 12.2 0.00 0.00 0.00 66 1013.0
20260831033105 84 143 7.0 11.3 0.00 0.00 0.00 63 1012.8
20260831031516 85 153 5.2 8.7 0.00 0.00 0.00 60 1012.8
20260831030047 86 185 4.3 9.6 0.00 0.00 0.00 58 1012.6
20260831024526 86 153 4.3 8.7 0.00 0.00 0.00 57 1012.2
20260831023040 87 141 6.1 11.3 0.00 0.00 0.00 56 1011.8
20260831021605 87 158 5.2 11.3 0.00 0.00 0.00 55 1011.5
20260831020012 88 162 4.3 9.6 0.00 0.00 0.00 55 1011.3
20260831014530 88 141 4.3 8.7 0.00 0.00 0.00 55 1011.2
20260831013055 89 158 4.3 9.6 0.00 0.00 0.00 54 1011.0
20260831011506 90 154 7.0 11.3 0.00 0.00 0.00 54 1010.9
20260831010023 90 141 6.1 11.3 0.00 0.00 0.00 53 1010.7
20260831004524 91 125 6.1 10.4 0.00 0.00 0.00 51 1010.6
20260831003041 93 135 5.2 10.4 0.00 0.00 0.00 48 1010.3
20260831001555 94 152 4.3 10.4 0.00 0.00 0.00 46 1010.3
20260831000012 95 155 7.0 11.3 0.00 0.00 0.00 45 1010.2
20260830234554 94 152 4.3 8.7 0.00 0.00 0.00 45 1010.1
20260830233007 96 129 4.3 11.3 0.00 0.00 0.00 43 1010.1
20260830231523 98 162 4.3 9.6 0.00 0.00 0.00 40 1010.0
20260830230048 98 139 3.5 10.4 0.00 0.00 0.00 39 1010.0
20260830224607 99 142 2.6 9.6 0.00 0.00 0.00 37 1010.0
20260830223050 99 160 4.3 7.8 0.00 0.00 0.00 37 1010.1
20260830221517 99 117 5.2 9.6 0.00 0.00 0.00 36 1010.2
20260830220044 98 143 1.7 9.6 0.00 0.00 0.00 38 1010.2